Location: �perlecques
(50.8057°N, 2.1521°E)
Time: 01:26:44
(UTC+00:00)

VELOX 1 - Pass Details

Date: 27 September 2021
Orbit: 627 x 642 km, 98.3° (Epoch: 21 October)

Event Time Altitude Azimuth Distance (km) Brightness Sun altitude
Exits shadow 03:27:49 56° 198° (SSW) 757 ? -21.9°
Maximum altitude 03:28:37 70° 256° (WSW) 673 ? -21.8°
Drops below altitude 10° 03:33:00 10° 341° (NNW) 2,018 ? -21.2°
Sets 03:35:13 0° 344° (NNW) 2,929 ? -20.8°
